GLO2909 SBRJ-SBCF

Flight info

Callsign GLO2909
Flight time 0h 42m
Altitude 31000
Route DAKDA UZ4 TOKUR
Aircraft B738/M-SDE2E3FGHIRWXY/LB1

Departure

Time 2026-05-09 02:00
Airport Santos Dumont Airport (SBRJ)

Arrival

Time 2026-05-09 02:42
Airport Tancredo Neves International Airport (SBCF)
Time Latitude Longitude Altitude Speed Heading
2026-05-09 01:28 -22.91280 -43.16573 27 ft 0 kts 266°
2026-05-09 01:50 -22.91279 -43.16562 29 ft 2 kts 265°
2026-05-09 01:50 -22.91278 -43.16545 27 ft 2 kts 265°
2026-05-09 01:51 -22.91277 -43.16527 29 ft 2 kts 265°
2026-05-09 01:51 -22.91270 -43.16512 29 ft 2 kts 199°
2026-05-09 01:51 -22.91254 -43.16509 29 ft 2 kts 179°
2026-05-09 01:51 -22.91243 -43.16510 29 ft 1 kts 175°
2026-05-09 01:52 -22.91242 -43.16510 29 ft 0 kts 175°
2026-05-09 01:54 -22.91252 -43.16509 29 ft 3 kts 178°
2026-05-09 01:55 -22.91278 -43.16507 29 ft 6 kts 175°
2026-05-09 01:55 -22.91343 -43.16502 29 ft 7 kts 176°
2026-05-09 01:55 -22.91376 -43.16500 29 ft 7 kts 176°
2026-05-09 01:55 -22.91420 -43.16483 28 ft 7 kts 141°
2026-05-09 01:56 -22.91447 -43.16458 28 ft 0 kts 137°
2026-05-09 01:56 -22.91454 -43.16451 28 ft 3 kts 137°
2026-05-09 01:56 -22.91468 -43.16436 28 ft 3 kts 137°
2026-05-09 01:56 -22.91479 -43.16425 28 ft 0 kts 136°
2026-05-09 01:57 -22.91480 -43.16425 28 ft 0 kts 136°
2026-05-09 01:58 -22.91501 -43.16403 27 ft 9 kts 136°
2026-05-09 01:58 -22.91556 -43.16346 23 ft 12 kts 137°
2026-05-09 01:58 -22.91620 -43.16282 25 ft 11 kts 138°
2026-05-09 01:59 -22.91634 -43.16258 23 ft 2 kts 68°
2026-05-09 01:59 -22.91609 -43.16248 23 ft 6 kts
2026-05-09 01:59 -22.91536 -43.16252 23 ft 31 kts 357°
2026-05-09 01:59 -22.91014 -43.16285 28 ft 118 kts 355°
2026-05-09 02:00 -22.89998 -43.16325 356 ft 158 kts 353°
2026-05-09 02:00 -22.88864 -43.16345 1155 ft 172 kts
2026-05-09 02:00 -22.87801 -43.15716 2078 ft 190 kts 44°
2026-05-09 02:00 -22.87260 -43.14255 2492 ft 233 kts 89°
2026-05-09 02:01 -22.87612 -43.12551 3373 ft 233 kts 108°
2026-05-09 02:01 -22.87952 -43.10795 4111 ft 245 kts 98°
2026-05-09 02:01 -22.88154 -43.08916 4820 ft 263 kts 96°
2026-05-09 02:01 -22.88338 -43.06840 5057 ft 300 kts 96°
2026-05-09 02:02 -22.88524 -43.04502 5010 ft 312 kts 94°
2026-05-09 02:02 -22.88487 -43.02179 5031 ft 301 kts 85°
2026-05-09 02:02 -22.88287 -42.99975 5024 ft 288 kts 83°
2026-05-09 02:02 -22.88088 -42.97856 5017 ft 276 kts 84°
2026-05-09 02:03 -22.87637 -42.95897 4976 ft 265 kts 55°
2026-05-09 02:03 -22.86336 -42.94610 4992 ft 249 kts 19°
2026-05-09 02:03 -22.84678 -42.94047 5098 ft 255 kts
2026-05-09 02:03 -22.82859 -42.93872 5579 ft 268 kts 357°
2026-05-09 02:04 -22.80970 -42.93819 6357 ft 273 kts 356°
2026-05-09 02:04 -22.79059 -42.93782 7259 ft 275 kts 356°
2026-05-09 02:04 -22.77137 -42.93743 8094 ft 278 kts 356°
2026-05-09 02:04 -22.75214 -42.93697 8882 ft 282 kts 356°
2026-05-09 02:05 -22.73241 -42.93643 9687 ft 285 kts 357°
2026-05-09 02:05 -22.71237 -42.93583 10397 ft 293 kts 357°
2026-05-09 02:05 -22.69114 -42.93521 10614 ft 317 kts 357°
2026-05-09 02:05 -22.66837 -42.93451 10982 ft 334 kts 358°
2026-05-09 02:06 -22.64488 -42.93371 11661 ft 340 kts 358°
2026-05-09 02:06 -22.62109 -42.93286 12436 ft 343 kts 358°
2026-05-09 02:06 -22.59714 -42.93200 13179 ft 346 kts 358°
2026-05-09 02:07 -22.54838 -42.93028 14584 ft 354 kts 358°
2026-05-09 02:07 -22.52364 -42.92942 15267 ft 358 kts 358°
2026-05-09 02:07 -22.49863 -42.92854 15910 ft 362 kts 358°
2026-05-09 02:07 -22.47358 -42.92767 16569 ft 365 kts 358°
2026-05-09 02:08 -22.44801 -42.92675 17188 ft 370 kts 358°
2026-05-09 02:08 -22.42202 -42.92586 17688 ft 376 kts 358°
2026-05-09 02:08 -22.39567 -42.92495 18239 ft 381 kts 358°
2026-05-09 02:08 -22.36907 -42.92401 18883 ft 383 kts 358°
2026-05-09 02:09 -22.34227 -42.92308 19477 ft 386 kts 358°
2026-05-09 02:09 -22.31539 -42.92332 20053 ft 386 kts 351°
2026-05-09 02:09 -22.28880 -42.92738 20632 ft 387 kts 347°
2026-05-09 02:09 -22.26208 -42.93213 21154 ft 390 kts 347°
2026-05-09 02:10 -22.23509 -42.93692 21639 ft 395 kts 348°
2026-05-09 02:10 -22.20817 -42.94151 22098 ft 399 kts 348°
2026-05-09 02:10 -22.18069 -42.94609 22675 ft 400 kts 348°
2026-05-09 02:10 -22.15306 -42.95064 23215 ft 402 kts 348°
2026-05-09 02:11 -22.12532 -42.95522 23662 ft 406 kts 348°
2026-05-09 02:11 -22.09723 -42.95983 24045 ft 409 kts 348°
2026-05-09 02:11 -22.06902 -42.96450 24529 ft 411 kts 348°
2026-05-09 02:11 -22.04062 -42.96920 24979 ft 413 kts 348°
2026-05-09 02:12 -22.01218 -42.97390 25451 ft 415 kts 348°
2026-05-09 02:12 -21.98350 -42.97864 25858 ft 418 kts 348°
2026-05-09 02:12 -21.95467 -42.98340 26212 ft 421 kts 348°
2026-05-09 02:12 -21.92555 -42.98820 26549 ft 425 kts 348°
2026-05-09 02:13 -21.89625 -42.99303 26931 ft 427 kts 348°
2026-05-09 02:13 -21.86680 -42.99788 27442 ft 425 kts 348°
2026-05-09 02:13 -21.83764 -43.00267 28030 ft 422 kts 348°
2026-05-09 02:13 -21.80894 -43.00739 28514 ft 422 kts 348°
2026-05-09 02:14 -21.77994 -43.01216 28945 ft 422 kts 348°
2026-05-09 02:14 -21.75084 -43.01695 29391 ft 421 kts 348°
2026-05-09 02:14 -21.72185 -43.02172 29856 ft 420 kts 348°
2026-05-09 02:14 -21.69288 -43.02648 30290 ft 419 kts 348°
2026-05-09 02:15 -21.66403 -43.03122 30598 ft 421 kts 348°
2026-05-09 02:15 -21.60574 -43.04080 30784 ft 423 kts 348°
2026-05-09 02:16 -21.54846 -43.05019 30969 ft 415 kts 348°
2026-05-09 02:16 -21.49092 -43.05963 31009 ft 420 kts 348°
2026-05-09 02:17 -21.43293 -43.06914 31011 ft 423 kts 348°
2026-05-09 02:17 -21.37403 -43.07880 31017 ft 438 kts 348°
2026-05-09 02:18 -21.31285 -43.08881 31014 ft 451 kts 348°
2026-05-09 02:18 -21.25003 -43.09905 31009 ft 462 kts 348°
2026-05-09 02:19 -21.18569 -43.10946 31004 ft 471 kts 348°
2026-05-09 02:19 -21.12071 -43.11992 31002 ft 471 kts 348°
2026-05-09 02:20 -21.05581 -43.13038 31001 ft 472 kts 348°
2026-05-09 02:20 -20.99136 -43.14078 30999 ft 472 kts 348°
2026-05-09 02:21 -20.92645 -43.15125 31007 ft 471 kts 348°
2026-05-09 02:21 -20.86154 -43.16170 30999 ft 471 kts 348°
2026-05-09 02:22 -20.79774 -43.17663 31003 ft 467 kts 337°
2026-05-09 02:22 -20.76852 -43.19082 30968 ft 452 kts 330°
2026-05-09 02:22 -20.74098 -43.20592 30305 ft 441 kts 330°
2026-05-09 02:22 -20.71367 -43.22106 29279 ft 441 kts 330°
2026-05-09 02:23 -20.68647 -43.23612 28201 ft 440 kts 330°
2026-05-09 02:23 -20.65952 -43.25090 27821 ft 425 kts 330°
2026-05-09 02:23 -20.63325 -43.26520 27327 ft 425 kts 330°
2026-05-09 02:23 -20.60666 -43.27962 26932 ft 433 kts 330°
2026-05-09 02:24 -20.57952 -43.29431 26503 ft 438 kts 330°
2026-05-09 02:24 -20.55233 -43.30897 26048 ft 437 kts 330°
2026-05-09 02:24 -20.52534 -43.32348 25583 ft 429 kts 330°
2026-05-09 02:24 -20.49906 -43.33760 25148 ft 427 kts 330°
2026-05-09 02:25 -20.47264 -43.35179 24708 ft 424 kts 330°
2026-05-09 02:25 -20.44635 -43.36592 24280 ft 420 kts 330°
2026-05-09 02:25 -20.42029 -43.37992 23866 ft 418 kts 330°
2026-05-09 02:25 -20.39434 -43.39386 23457 ft 417 kts 330°
2026-05-09 02:26 -20.36844 -43.40778 23040 ft 419 kts 330°
2026-05-09 02:26 -20.34177 -43.42212 22637 ft 439 kts 330°
2026-05-09 02:26 -20.31403 -43.43706 22183 ft 450 kts 330°
2026-05-09 02:26 -20.28616 -43.45201 21720 ft 446 kts 330°
2026-05-09 02:27 -20.25843 -43.46685 21269 ft 445 kts 330°
2026-05-09 02:27 -20.23086 -43.48162 20827 ft 443 kts 330°
2026-05-09 02:27 -20.20336 -43.49633 20373 ft 441 kts 330°
2026-05-09 02:27 -20.17597 -43.51100 19945 ft 439 kts 330°
2026-05-09 02:28 -20.14914 -43.52542 19524 ft 436 kts 330°
2026-05-09 02:28 -20.12205 -43.53990 19085 ft 435 kts 330°
2026-05-09 02:28 -20.09502 -43.55432 18654 ft 433 kts 330°
2026-05-09 02:28 -20.06815 -43.56867 18226 ft 430 kts 330°
2026-05-09 02:29 -20.04161 -43.58283 17789 ft 423 kts 330°
2026-05-09 02:29 -20.01551 -43.59677 17365 ft 419 kts 330°
2026-05-09 02:29 -19.98946 -43.61070 16951 ft 417 kts 330°
2026-05-09 02:29 -19.96355 -43.62454 16527 ft 416 kts 330°
2026-05-09 02:30 -19.93773 -43.63832 16125 ft 414 kts 330°
2026-05-09 02:30 -19.91206 -43.65202 15699 ft 412 kts 330°
2026-05-09 02:30 -19.88647 -43.66567 15286 ft 410 kts 330°
2026-05-09 02:30 -19.86136 -43.67906 14869 ft 407 kts 330°
2026-05-09 02:31 -19.83583 -43.69267 14461 ft 404 kts 330°
2026-05-09 02:31 -19.81073 -43.70605 14051 ft 402 kts 330°
2026-05-09 02:31 -19.78604 -43.71920 13656 ft 400 kts 330°
2026-05-09 02:31 -19.76129 -43.73239 13247 ft 397 kts 330°
2026-05-09 02:32 -19.73658 -43.74554 12842 ft 394 kts 330°
2026-05-09 02:32 -19.71216 -43.75854 12442 ft 391 kts 330°
2026-05-09 02:32 -19.68943 -43.77384 12022 ft 384 kts 318°
2026-05-09 02:32 -19.66978 -43.79251 11651 ft 371 kts 315°
2026-05-09 02:33 -19.65128 -43.81060 11261 ft 352 kts 315°
2026-05-09 02:33 -19.63380 -43.82738 10894 ft 335 kts 315°
2026-05-09 02:33 -19.61676 -43.84339 10556 ft 320 kts 315°
2026-05-09 02:33 -19.60034 -43.85863 10230 ft 307 kts 316°
2026-05-09 02:34 -19.58463 -43.87316 10043 ft 291 kts 315°
2026-05-09 02:34 -19.56976 -43.88691 9977 ft 276 kts 315°
2026-05-09 02:34 -19.55554 -43.90004 9852 ft 268 kts 315°
2026-05-09 02:34 -19.54122 -43.91329 9398 ft 274 kts 315°
2026-05-09 02:35 -19.52680 -43.92664 9058 ft 274 kts 315°
2026-05-09 02:35 -19.51249 -43.93988 8771 ft 272 kts 315°
2026-05-09 02:35 -19.49826 -43.95303 8454 ft 271 kts 315°
2026-05-09 02:35 -19.48395 -43.96626 8082 ft 273 kts 315°
2026-05-09 02:36 -19.46987 -43.97926 7788 ft 269 kts 315°
2026-05-09 02:36 -19.45602 -43.99203 7508 ft 260 kts 315°
2026-05-09 02:36 -19.44261 -44.00439 7250 ft 251 kts 315°
2026-05-09 02:36 -19.42971 -44.01641 7000 ft 241 kts 311°
2026-05-09 02:37 -19.42144 -44.03081 6832 ft 223 kts 282°
2026-05-09 02:37 -19.42049 -44.04675 6629 ft 213 kts 262°
2026-05-09 02:37 -19.42534 -44.06136 6422 ft 211 kts 240°
2026-05-09 02:37 -19.43501 -44.07316 6242 ft 215 kts 223°
2026-05-09 02:38 -19.44819 -44.08049 6035 ft 214 kts 202°
2026-05-09 02:38 -19.46218 -44.08449 5849 ft 203 kts 201°
2026-05-09 02:38 -19.47558 -44.08825 5628 ft 195 kts 201°
2026-05-09 02:38 -19.48844 -44.09102 5397 ft 191 kts 185°
2026-05-09 02:39 -19.50122 -44.08795 5238 ft 181 kts 166°
2026-05-09 02:39 -19.51236 -44.08113 5093 ft 201 kts 147°
2026-05-09 02:39 -19.52370 -44.07139 5440 ft 212 kts 144°
2026-05-09 02:39 -19.53488 -44.06115 5103 ft 218 kts 143°
2026-05-09 02:40 -19.54585 -44.05083 4756 ft 203 kts 143°
2026-05-09 02:40 -19.55600 -44.04132 4473 ft 188 kts 144°
2026-05-09 02:40 -19.56530 -44.03265 4291 ft 173 kts 144°
2026-05-09 02:40 -19.57430 -44.02428 4043 ft 170 kts 144°
2026-05-09 02:41 -19.58027 -44.01871 3888 ft 168 kts 145°
2026-05-09 02:41 -19.58898 -44.01060 3639 ft 168 kts 144°
2026-05-09 02:41 -19.59786 -44.00231 3449 ft 173 kts 145°
2026-05-09 02:41 -19.60669 -43.99360 3243 ft 170 kts 142°
2026-05-09 02:42 -19.61526 -43.98562 3001 ft 157 kts 146°
2026-05-09 02:42 -19.62590 -43.97593 2764 ft 145 kts 144°
2026-05-09 02:42 -19.63078 -43.97150 2755 ft 124 kts 138°
2026-05-09 02:42 -19.63507 -43.96750 2750 ft 36 kts 135°
2026-05-09 02:43 -19.63588 -43.96593 2750 ft 8 kts 110°
2026-05-09 02:43 -19.63606 -43.96539 2751 ft 8 kts 110°
2026-05-09 02:43 -19.63624 -43.96486 2754 ft 7 kts 110°
2026-05-09 02:43 -19.63641 -43.96434 2753 ft 8 kts 106°
2026-05-09 02:44 -19.63633 -43.96379 2752 ft 8 kts 53°
2026-05-09 02:44 -19.63588 -43.96345 2752 ft 10 kts 30°
2026-05-09 02:44 -19.63512 -43.96301 2753 ft 13 kts 29°
2026-05-09 02:44 -19.63452 -43.96270 2753 ft 0 kts 25°
2026-05-09 02:45 -19.63430 -43.96258 2751 ft 3 kts 26°
2026-05-09 02:45 -19.63415 -43.96251 2751 ft 0 kts 25°